Change the Weather History Date:

Tuesday, April 1, 2014

  Actual Average Record
Temperature  
Mean Temperature 62 °F 60 °F  
Max Temperature 65 °F 67 °F 87 °F (1985)
Min Temperature 58 °F 54 °F 41 °F (1892)
Degree Days  
Heating Degree Days 3 5  
Month to date heating degree days 3 5  
Since 1 July heating degree days 499 1041  
Cooling Degree Days 0 0  
Month to date cooling degree days 0 0  
Year to date cooling degree days 29 10  
Growing Degree Days 10 (Base 50)    
Moisture  
Dew Point 46 °F    
Average Humidity 60    
Maximum Humidity 80    
Minimum Humidity 40    
Precipitation  
Precipitation 0.05 in 0.04 in 0.77 in (1958)
Month to date precipitation 0.05 0.04  
Year to date precipitation 2.34 6.10  
Since 1 July precipitation 4.58 9.41  
Snow  
Snow 0.00 in - - ()
Month to date snowfall 0.0  
Year to date snowfall 0.0  
Since 1 July snowfall 0.0  
Snow Depth 0.00 in    
Sea Level Pressure  
Sea Level Pressure 30.02 in    
Wind  
Wind Speed 9 mph (West)    
Max Wind Speed 18 mph    
Max Gust Speed 25 mph    
Visibility 9 miles    
Events Rain    
T = Trace of Precipitation, MM = Missing Value Source: NWS Daily Summary

Daily Weather History Graph

Daily Weather History Graph

Search for Another Location

Airport or City:

Trip Planner

Search our weather history database for the weather conditions in past years. The results will help you decide how hot, cold, wet, or windy it might be!

Date:

Astronomy

Apr. 01, 2014 Rise Set
Actual Time 6:36 AM PDT 7:08 PM PDT
Civil Twilight 6:11 AM PDT 7:33 PM PDT
Nautical Twilight 5:42 AM PDT 8:02 PM PDT
Astronomical Twilight 5:13 AM PDT 8:32 PM PDT
Moon 7:49 AM PDT 9:28 PM PDT
Length of Visible Light 13h 21m
Length of Day
12h 32m
Waxing Crescent, 5% of the Moon is Illuminated
Apr 1
Waxing Crescent
Apr 7
First Quarter
Apr 15
Full
Apr 22
Last Quarter
Apr 28
New

Hourly Weather History & Observations

Time (PDT) Temp. Dew Point Humidity Pressure Visibility Wind Dir Wind Speed Gust Speed Precip Events Conditions
12:51 AM 60.1 °F 46.0 °F 60% 30.05 in 10.0 mi West 8.1 mph - N/A   Scattered Clouds
1:51 AM 60.1 °F 45.0 °F 57% 30.04 in 10.0 mi WNW 3.5 mph - N/A   Partly Cloudy
2:51 AM 60.1 °F 44.1 °F 55% 30.03 in 10.0 mi Calm Calm - N/A   Overcast
3:51 AM 59.0 °F 45.0 °F 60% 30.01 in 10.0 mi NNW 5.8 mph - N/A   Mostly Cloudy
4:28 AM 60.8 °F 46.4 °F 59% 30.00 in 10.0 mi Calm Calm - N/A   Mostly Cloudy
4:51 AM 60.1 °F 46.9 °F 62% 30.00 in 10.0 mi SW 5.8 mph - N/A   Mostly Cloudy
5:35 AM 60.8 °F 48.2 °F 63% 29.99 in 10.0 mi SW 9.2 mph - N/A   Mostly Cloudy
5:51 AM 61.0 °F 48.0 °F 62% 29.99 in 10.0 mi SW 9.2 mph - N/A   Mostly Cloudy
6:51 AM 61.0 °F 48.9 °F 64% 29.99 in 10.0 mi SW 10.4 mph - N/A   Mostly Cloudy
7:10 AM 60.8 °F 51.8 °F 72% 30.00 in 2.5 mi WSW 15.0 mph 25.3 mph 0.00 in Rain Light Rain
7:15 AM 57.2 °F 51.8 °F 82% 30.00 in 3.0 mi West 13.8 mph 25.3 mph 0.04 in Rain Light Rain
7:27 AM 57.2 °F 51.8 °F 82% 30.00 in 4.0 mi WSW 6.9 mph - 0.04 in Rain Light Rain
7:48 AM 57.2 °F 53.6 °F 88% 30.01 in 7.0 mi SW 10.4 mph - 0.04 in   Mostly Cloudy
7:51 AM 59.0 °F 53.1 °F 81% 30.01 in 7.0 mi SW 9.2 mph - 0.04 in   Mostly Cloudy
8:10 AM 59.0 °F 53.6 °F 82% 30.01 in 7.0 mi WSW 11.5 mph - 0.01 in Rain Light Rain
8:51 AM 60.1 °F 51.1 °F 72% 30.02 in 7.0 mi WNW 10.4 mph - 0.01 in   Mostly Cloudy
9:12 AM 59.0 °F 51.8 °F 77% 30.03 in 7.0 mi NW 12.7 mph - 0.00 in Rain Light Rain
9:51 AM 57.9 °F 50.0 °F 75% 30.05 in 7.0 mi North 12.7 mph - 0.00 in   Mostly Cloudy
10:08 AM 59.0 °F 48.2 °F 67% 30.05 in 10.0 mi North 8.1 mph - N/A   Mostly Cloudy
10:51 AM 61.0 °F 46.9 °F 60% 30.06 in 10.0 mi NW 11.5 mph - N/A   Mostly Cloudy
11:51 AM 62.1 °F 45.0 °F 53% 30.05 in 10.0 mi NNW 16.1 mph 23.0 mph N/A   Mostly Cloudy
12:51 PM 64.0 °F 43.0 °F 46% 30.05 in 10.0 mi WNW 10.4 mph - N/A   Scattered Clouds
1:51 PM 63.0 °F 42.1 °F 46% 30.03 in 10.0 mi NW 9.2 mph - N/A   Scattered Clouds
2:51 PM 63.0 °F 43.0 °F 48% 30.02 in 10.0 mi West 11.5 mph - N/A   Scattered Clouds
3:51 PM 64.0 °F 42.1 °F 45% 30.01 in 10.0 mi West 9.2 mph 19.6 mph N/A   Scattered Clouds
4:51 PM 64.0 °F 39.0 °F 40% 30.00 in 10.0 mi WNW 15.0 mph - N/A   Partly Cloudy
5:51 PM 63.0 °F 39.9 °F 43% 30.00 in 10.0 mi West 13.8 mph - N/A   Partly Cloudy
6:51 PM 62.1 °F 37.0 °F 39% 30.00 in 10.0 mi West 12.7 mph - N/A   Partly Cloudy
7:51 PM 61.0 °F 39.9 °F 46% 30.00 in 10.0 mi WNW 8.1 mph - N/A   Partly Cloudy
8:51 PM 60.1 °F 43.0 °F 53% 30.01 in 10.0 mi WNW 8.1 mph - N/A   Scattered Clouds
9:51 PM 60.1 °F 41.0 °F 49% 30.02 in 10.0 mi WNW 8.1 mph - N/A   Mostly Cloudy
10:51 PM 60.1 °F 42.1 °F 51% 30.02 in 10.0 mi West 10.4 mph - 0.00 in   Mostly Cloudy
11:51 PM 60.1 °F 42.1 °F 51% 30.02 in 10.0 mi WNW 6.9 mph - N/A   Mostly Cloudy